SCP
-0 -0 0 -0 0 0 0 0 0 0 0 0 0 0 0 0 -0 -0 -0 -0 -0 -1 -0 -0 -0 -0 -0 -1 -1 -1 -1 -1 -1 -1 -0 -0 -0 -0 -0 -0 -0 -0 -0 -0 -0 -0 -0 -0 -0
-0 0 0 0 0 0 0 0 0 0 0 0 0 -0 -0 -0 0 0 -0 -0 -0 -1 -0 -0 -0 -0 -0 -0 -1 -1 -1 -1 -1 -1 -0 -0 -0 -0 -0 -0 -0 -0 -0 -0 -0 -0 -0 -0 -0
0 0 0 0 -0 -0 0 0 0 0 0 0 0 0 0 -0 -0 0 0 -0 -0 -0 -0 -0 -0 -0 -0 -0 -0 -1 -1 -1 -1 -0 -0 -0 -0 -0 -0 -0 -0 -0 -0 -0 -0 -0 -0 -0 -0
0 0 0 0 -0 -0 0 0 0 0 0 0 0 0 0 0 -0 -0 -0 -0 -0 -0 -0 -0 -0 -0 -0 -0 -0 -1 -1 -1 -0 -0 -0 -0 -0 -0 -0 -0 -0 -0 -0 -0 -0 -0 -0 -0 -0
0 0 0 0 0 0 0 0 0 0 0 0 0 -0 0 0 0 -0 -0 -0 -0 -0 -0 -0 -0 -0 -0 -0 -0 -0 -0 -0 -0 -0 -0 -0 -0 -0 -0 -0 -0 -0 -0 -0 -0 -0 0 0 0
0 0 0 0 0 0 0 0 0 0 0 0 -0 -0 0 0 -0 -0 -0 -0 -0 -0 -0 -0 -0 -0 -0 -0 -0 -0 -0 -0 -0 -0 -0 -0 -0 -0 -0 -0 -0 -0 -0 -0 -0 0 0 0 0
0 0 0 0 0 0 0 0 0 0 0 0 -0 -0 0 0 -0 -0 -0 -0 -0 -0 -0 -0 -0 -0 -0 -0 -0 -0 -0 -0 -0 -0 -0 -0 -0 -0 -0 -0 -0 -0 -0 0 0 0 0 0 -0
0 0 0 0 0 0 0 0 0 0 0 0 0 -0 -0 0 -0 -0 -0 -0 -0 -0 -0 -0 -0 -0 -0 -0 -0 -0 -0 -0 -0 -0 -0 -0 -0 -0 -0 -0 -0 -0 -0 0 0 0 0 0 -0
0 0 0 0 0 0 0 0 0 0 0 0 0 0 0 -0 -0 -0 -0 -0 -0 -0 -0 -0 -0 -0 -0 -0 -0 -0 -0 -0 -0 -0 -0 -0 -0 -0 -0 -0 -0 -0 0 0 -0 0 0 -0 -0
0 0 0 0 0 0 0 0 0 0 0 0 0 -0 -0 -0 -0 -0 -0 -0 -0 -0 -0 -0 -0 -0 -0 -0 -0 -0 -0 -0 -0 -0 -0 0 0 0 0 0 0 0 0 0 -0 -0 -0 -0 -0
0 0 0 0 0 0 0 0 0 0 -0 0 -0 -0 -0 -0 -0 -0 -0 -0 -0 -0 -0 -0 -0 -0 -0 -0 -0 0 0 -0 0 0 0 0 0 0 0 0 0 0 0 0 -0 -0 -0 0 0
0 0 0 0 0 0 0 0 0 0 0 -0 0 0 -0 -0 -0 -0 0 -0 0 0 0 -0 -0 -0 -0 0 0 0 0 0 0 0 0 0 0 0 0 0 0 0 0 0 0 -0 -0 0 0
0 0 0 0 0 0 0 0 0 0 0 -0 0 0 -0 -0 -0 -0 0 0 0 0 0 0 -0 0 -0 0 0 0 0 0 0 0 0 0 0 0 0 0 0 0 0 0 0 0 0 -0 0
0 0 0 0 0 0 0 0 0 0 0 0 0 0 -0 -0 -0 -0 0 -0 -0 -0 -0 -0 0 0 -0 0 0 0 0 0 0 0 0 0 0 0 0 0 0 0 0 0 0 0 0 0 0
0 0 0 0 0 0 0 0 0 0 0 0 0 0 0 0 0 -0 -0 -0 -0 0 0 0 0 0 0 0 0 0 0 -0 -0 -0 0 0 0 0 0 0 0 0 0 0 0 0 0 0 0
0 0 0 0 0 0 0 0 0 0 0 0 0 0 0 0 0 -0 -0 -0 -0 0 0 0 0 0 0 0 0 0 0 -0 -0 -0 -0 -0 -0 -0 0 0 0 0 0 0 0 0 0 0 0
0 0 0 0 0 0 0 0 0 0 0 0 0 1 1 1 0 0 0 -0 -0 0 0 0 0 0 0 0 0 0 0 0 0 0 -0 -0 -0 -0 -0 0 0 0 0 0 0 0 0 0 0
0 0 0 0 0 0 0 0 1 1 1 0 1 1 1 0 0 0 0 0 0 0 0 0 0 0 0 0 0 0 0 0 0 0 0 -0 -0 -0 0 0 0 0 0 0 0 0 0 0 1
0 0 0 0 0 0 0 0 1 1 1 1 1 1 1 0 0 0 0 0 0 0 0 0 0 0 0 0 0 0 0 0 0 0 0 0 0 -0 -0 0 0 0 0 1 1 1 1 1 1
0 0 0 0 0 0 0 0 1 1 1 1 1 0 0 0 0 0 0 0 0 0 0 0 0 0 0 0 0 0 0 0 0 0 0 0 0 0 0 0 0 0 0 0 0 0 0 0 0
0 0 0 0 0 0 0 0 1 0 0 1 1 0 0 0 0 0 0 0 0 0 0 0 0 0 0 0 1 1 1 0 0 0 0 0 0 0 0 0 0 0 0 0 0 0 0 0 0
0 0 0 0 0 0 0 0 0 1 1 0 0 0 0 0 0 0 0 0 0 0 0 0 0 0 0 0 1 0 0 1 0 0 0 0 0 0 0 0 0 0 0 0 0 0 0 0 0
0 0 0 0 0 0 0 0 0 0 0 0 0 0 0 0 0 0 0 0 0 0 0 0 0 0 0 0 0 0 0 0 0 0 0 0 0 0 0 0 0 0 0 0 0 0 0 0 0
0 0 0 0 0 0 0 0 0 0 0 0 0 0 0 0 0 0 0 0 0 0 0 0 0 0 0 0 0 0 0 0 0 0 0 0 0 0 0 0 0 0 0 0 0 0 0 0 0
0 0 0 0 0 0 0 0 0 0 0 0 0 0 0 0 0 0 0 0 0 0 0 0 0 0 0 0 0 0 0 0 0 0 0 0 0 0 0 0 0 0 0 0 0 0 0 0 0
0 0 0 0 0 0 0 0 0 0 0 0 0 0 0 0 0 0 0 0 0 0 0 0 0 0 0 0 0 0 0 0 0 0 0 0 0 0 0 0 0 0 0 0 0 0 0 0 0
0 0 0 0 0 0 0 0 0 0 0 0 0 0 0 0 0 0 0 0 0 0 0 0 0 0 0 0 0 0 0 0 0 0 0 0 0 0 0 0 0 0 0 0 0 0 0 0 0
0 0 0 0 0 0 0 0 0 0 0 0 0 0 0 0 0 0 0 0 0 0 0 0 0 0 0 0 0 0 0 0 0 0 0 0 0 0 0 0 0 0 0 0 0 0 0 0 0
0 0 0 0 0 0 0 0 0 0 0 0 0 0 0 0 0 0 0 0 0 0 0 0 0 0 0 0 0 0 0 0 0 0 0 0 0 0 0 0 0 0 0 0 0 0 0 0 0
0 0 0 0 0 0 0 0 0 0 0 0 0 0 0 0 0 0 0 0 0 0 0 0 0 0 0 0 0 0 0 0 0 0 0 0 0 0 0 0 0 0 0 0 0 0 0 0 0
Wind_Speed_500mb
26 16 6 4 6 4 4 4 1 7 3 4 1 2 3 7 2 3 23 49 53 66 60 54 49 45 43 42 41 40 41 40 36 33 30 26 23 23 20 17 16 13 13 15 14 11 8 9 13
23 18 7 3 6 5 3 4 12 7 2 5 3 7 3 7 9 14 42 43 59 64 60 56 49 44 42 40 37 35 35 36 35 33 30 27 25 20 18 17 16 17 17 16 15 14 14 16 18
26 22 6 3 5 10 2 3 6 4 7 4 5 6 5 8 8 32 39 46 63 63 58 57 52 46 41 37 31 29 30 33 34 33 31 28 24 21 20 21 20 19 20 20 19 20 21 22 25
23 11 8 7 18 12 5 10 14 0 10 4 5 9 10 9 13 14 44 52 58 58 55 55 53 48 42 35 29 25 27 31 32 31 30 27 26 25 24 22 20 19 20 21 24 26 26 28 26
30 8 6 8 13 11 10 15 12 1 0 6 6 7 8 12 7 17 41 51 53 57 51 53 53 48 43 37 30 25 26 30 31 30 29 29 29 27 26 23 20 20 24 25 28 29 27 26 25
9 6 7 23 15 9 15 21 18 16 14 7 8 13 9 11 8 28 39 45 49 55 52 53 52 49 44 38 30 25 27 30 32 31 31 31 30 30 27 23 19 22 26 29 31 29 26 20 16
9 8 12 6 10 12 14 8 11 9 15 18 13 13 12 19 17 34 39 44 51 53 50 52 52 50 44 38 31 26 29 29 32 33 33 32 31 29 26 19 18 21 25 29 29 25 19 17 14
7 6 11 12 14 8 2 1 3 10 16 9 16 13 13 37 33 42 42 45 47 50 44 51 51 52 48 41 33 28 30 32 32 31 32 32 30 29 23 18 20 20 24 27 27 21 16 11 8
12 11 20 17 18 7 7 4 1 13 19 14 22 9 17 46 46 48 48 43 47 49 45 43 48 51 52 45 37 30 31 33 33 32 31 31 29 27 25 25 23 21 21 24 24 20 14 9 5
20 15 20 11 13 9 3 3 15 7 15 20 23 17 36 52 53 54 54 51 53 54 53 46 48 54 53 48 42 36 34 36 35 34 34 33 30 28 29 29 28 24 23 21 22 19 16 13 13
15 18 14 12 18 3 2 14 10 17 22 32 57 46 53 57 56 51 47 45 47 51 51 51 52 56 55 51 46 40 36 39 36 35 34 32 30 30 32 33 32 30 27 26 23 22 20 18 17
13 23 16 28 12 9 8 13 22 12 8 14 37 52 64 64 57 52 49 46 45 44 52 49 51 54 55 52 47 41 37 38 39 37 35 32 31 31 32 35 36 34 31 28 27 25 24 22 22
28 14 27 37 30 29 23 24 11 28 27 13 44 46 62 59 51 45 41 43 45 45 45 50 49 52 53 49 48 44 40 37 40 38 36 34 31 30 30 34 35 36 34 32 31 29 28 28 28
21 50 33 15 27 23 19 18 8 5 19 28 53 49 56 59 51 47 46 46 46 44 42 45 47 48 48 49 47 45 42 38 40 41 38 34 33 31 30 31 33 35 35 34 34 33 32 32 32
23 9 26 34 31 17 28 14 13 12 28 40 40 42 44 44 43 43 43 42 42 42 39 39 41 42 42 44 44 45 43 40 39 42 40 37 35 34 33 32 33 33 34 34 34 35 37 37 36
13 9 17 8 30 12 26 23 8 20 32 36 39 39 36 30 29 31 38 40 40 39 40 39 36 34 34 37 37 34 39 39 40 41 44 41 38 36 36 38 38 36 35 35 35 34 36 36 37
5 9 15 5 18 14 17 16 14 25 30 36 39 35 32 33 36 39 39 40 38 38 39 38 38 31 32 33 32 33 33 35 38 40 42 46 44 41 41 41 41 41 40 42 41 40 39 40 39
14 11 7 7 12 16 19 17 21 25 33 31 32 32 29 25 29 31 35 40 43 43 43 43 42 37 36 31 31 33 32 33 36 39 41 42 46 47 46 44 44 46 48 49 48 49 47 46 49
9 9 6 5 9 12 22 21 16 17 30 34 31 30 26 30 28 24 28 35 38 37 36 40 45 44 45 42 35 37 31 26 26 31 34 38 42 47 51 51 51 52 50 51 54 56 52 48 52
11 11 13 7 3 11 17 19 12 13 18 26 31 32 30 33 30 27 28 29 27 30 35 38 45 46 48 48 39 31 37 36 34 33 41 39 37 41 47 50 49 44 43 48 56 57 59 56 56
20 22 10 5 15 11 27 12 16 8 14 19 20 24 28 36 37 34 30 26 25 28 31 37 41 48 49 50 47 40 34 36 40 45 48 46 46 47 42 45 45 54 55 53 62 65 63 70 65
22 21 11 26 16 10 8 17 15 16 19 23 32 33 35 43 41 34 29 25 21 22 25 32 39 44 45 47 50 48 46 47 46 42 39 42 42 39 49 58 59 64 64 66 53 44 47 52 60
9 16 15 21 11 24 11 8 13 12 22 30 40 43 42 37 41 36 30 27 25 24 24 23 27 35 40 42 43 44 46 40 38 38 38 38 39 38 39 38 35 31 27 25 27 30 34 41 43
24 17 13 6 8 10 5 6 8 20 39 34 37 45 47 38 36 34 32 32 32 30 28 27 26 25 27 31 36 38 41 41 41 39 38 36 35 33 30 29 29 31 30 33 34 36 39 39 42
9 16 10 12 10 3 2 9 4 27 24 29 43 48 46 41 39 39 36 36 36 36 33 30 28 28 28 29 31 35 35 32 30 32 31 29 23 21 19 16 15 15 15 16 19 22 27 31 35
9 8 9 11 8 6 2 8 5 4 6 9 19 40 46 44 41 44 43 43 40 37 35 32 29 26 25 24 24 24 24 23 22 18 17 16 16 14 15 15 14 16 17 17 18 20 23 26 29
11 6 5 13 4 5 5 4 10 8 9 4 19 33 47 47 44 49 46 42 39 38 36 33 31 30 28 26 23 21 20 19 18 17 17 18 17 16 14 12 12 14 16 18 20 21 23 24 28
8 21 8 4 12 9 5 5 5 7 11 11 17 33 37 43 46 50 52 47 44 38 35 34 32 29 27 25 22 21 20 18 17 16 15 14 13 12 11 11 12 13 15 16 18 20 23 27 30
9 6 9 8 5 11 9 6 10 12 16 15 7 16 30 45 51 54 54 48 42 37 35 34 31 28 26 24 23 20 18 16 15 13 12 11 10 8 8 8 11 15 18 20 23 25 25 26 28
5 5 14 15 14 3 2 6 10 15 20 22 15 6 20 33 42 46 47 47 47 40 36 35 33 30 27 26 24 23 23 22 20 17 15 13 10 9 10 14 18 20 22 24 26 30 34 35 36
Wind_Direction_500mb
213 213 227 326 261 295 250 189 145 172 230 281 271 234 212 33 7 15 154 168 173 170 170 165 164 164 165 165 165 165 166 166 168 170 170 168 161 157 162 162 159 163 161 161 162 162 151 135 131
194 182 167 96 251 254 231 201 215 158 136 88 256 137 114 69 42 125 146 163 173 173 170 168 166 166 164 164 164 166 169 172 173 173 173 169 164 168 172 169 164 161 152 149 150 144 133 129 122
175 161 154 235 208 230 175 354 312 130 135 48 96 69 57 35 8 142 157 160 171 173 172 171 170 168 167 165 166 170 174 176 175 172 170 167 167 169 165 160 157 159 151 145 137 130 127 123 116
156 135 74 230 229 252 211 103 38 188 204 200 77 62 69 44 131 141 157 160 172 173 175 174 173 171 171 171 171 175 178 178 176 173 170 168 163 162 160 155 154 153 149 146 138 133 128 122 112
159 134 165 226 241 267 249 252 260 268 45 121 122 120 81 109 118 146 157 165 173 175 173 178 175 175 175 174 174 177 176 174 175 174 169 164 160 159 154 149 143 138 146 149 140 133 125 121 119
137 150 191 222 223 252 272 254 242 223 225 139 148 141 123 139 143 153 165 169 173 177 176 179 178 179 178 176 174 173 173 171 168 166 164 162 160 158 154 147 139 130 147 146 145 141 134 127 117
180 187 215 216 246 255 259 260 231 246 257 244 149 169 147 172 175 165 176 172 175 177 178 181 180 180 180 180 176 172 172 170 165 164 165 162 159 159 158 154 149 137 152 154 157 154 143 129 114
171 219 181 216 213 227 169 250 238 283 289 221 181 194 174 177 179 168 171 166 171 178 176 181 180 181 182 181 178 174 174 172 170 170 168 165 162 163 166 167 160 150 158 163 167 164 150 144 124
167 224 225 210 182 187 149 326 100 298 250 189 173 166 177 169 178 163 161 162 174 177 179 179 178 182 183 184 181 179 180 180 178 175 175 172 169 170 173 174 168 163 162 171 177 178 176 189 223
202 226 215 207 196 177 141 238 329 264 190 178 157 152 159 167 175 167 169 172 180 182 183 181 182 184 185 186 185 185 185 186 186 182 180 180 180 181 179 179 178 178 172 185 187 198 212 217 237
201 231 202 213 212 229 250 303 320 306 198 194 174 160 162 167 171 174 178 182 182 183 184 188 187 188 189 191 191 190 191 192 191 190 188 188 188 190 189 186 188 191 193 192 207 211 224 236 239
226 229 227 229 220 264 274 314 314 269 212 232 186 168 168 171 176 180 181 182 182 185 188 190 191 192 194 198 197 200 199 198 196 196 195 193 192 191 193 193 197 199 206 210 212 219 231 241 247
229 238 230 238 250 261 279 277 272 267 268 238 187 172 169 172 176 179 182 185 188 188 190 194 196 197 201 203 205 206 207 206 203 202 202 200 198 198 198 200 203 209 215 220 229 231 235 245 250
213 226 237 251 242 241 239 260 207 254 170 158 173 173 172 175 178 183 188 190 193 194 191 195 199 203 207 208 212 214 214 214 212 209 209 209 208 207 209 209 211 216 223 229 234 242 244 246 250
243 240 237 246 235 228 217 239 223 168 166 151 162 170 165 172 181 190 194 198 199 203 205 201 201 208 209 214 218 220 222 221 219 217 216 216 217 218 219 220 222 225 229 236 242 247 252 253 253
201 210 235 190 195 211 190 200 148 166 161 159 161 161 156 170 184 197 205 207 211 213 217 214 212 212 214 217 220 223 225 226 225 223 222 222 223 225 228 231 233 233 235 239 246 249 253 258 261
182 198 212 165 185 159 210 182 157 164 172 163 164 155 158 178 197 210 216 224 227 231 228 227 225 219 222 221 219 221 223 226 228 229 231 229 231 231 235 238 239 240 244 249 250 255 257 257 261
178 198 190 182 148 170 184 127 150 169 172 165 160 155 159 165 196 213 221 229 230 228 234 233 229 222 218 221 218 217 221 226 230 235 236 237 240 241 243 245 250 253 256 258 260 262 263 262 260
159 163 185 168 181 177 191 139 153 170 172 167 165 158 154 179 188 200 212 221 226 229 227 227 224 221 215 220 214 211 208 214 222 234 239 234 241 244 245 246 249 253 259 264 267 268 265 263 264
205 239 242 97 4 200 164 133 123 157 183 184 170 161 168 177 174 187 206 212 212 213 214 211 214 214 212 217 221 219 221 223 230 241 243 246 256 255 252 254 261 260 267 270 274 273 276 269 275
221 228 218 194 117 76 145 144 171 125 132 161 180 175 179 180 181 187 194 203 209 205 211 211 210 216 217 217 217 225 227 234 241 244 252 257 261 262 266 263 262 267 259 260 263 265 260 259 259
220 215 197 151 172 164 232 187 210 182 173 193 196 197 187 192 195 196 197 207 213 211 207 208 211 217 220 221 224 228 236 241 247 250 252 254 259 258 261 257 253 254 252 255 262 268 269 267 266
223 145 169 167 172 143 155 217 135 181 203 203 201 199 197 197 200 193 193 203 212 214 208 205 208 211 217 223 225 228 229 232 241 248 249 251 257 266 266 265 265 266 260 251 253 257 258 266 266
142 108 76 98 173 165 112 273 181 192 209 207 203 201 196 193 195 193 196 205 206 206 204 204 207 208 210 217 219 219 225 235 239 236 240 246 255 262 262 258 258 261 259 256 259 260 262 264 262
142 160 162 190 201 190 33 223 68 208 207 213 208 200 194 191 192 193 197 195 194 193 197 201 201 204 204 204 208 215 222 224 224 231 240 245 249 254 258 264 272 278 280 279 271 266 263 266 261
147 200 220 218 207 128 108 188 133 158 149 211 223 207 194 191 189 195 190 188 187 186 186 189 195 202 202 202 202 203 208 212 215 217 219 224 232 243 256 268 279 287 290 291 288 284 279 273 272
150 182 20 103 68 213 134 229 249 250 247 252 214 199 202 191 186 195 193 193 190 189 189 189 192 195 195 199 199 199 200 201 203 211 223 236 245 253 263 273 280 284 291 295 298 298 296 290 285
190 142 157 112 164 216 147 264 172 198 211 189 194 208 203 194 189 193 197 198 200 195 190 188 188 193 194 192 194 199 205 211 220 223 226 233 239 243 253 268 283 291 298 302 302 301 297 295 292
144 159 77 94 328 210 192 192 3 329 338 307 279 221 205 199 198 197 199 204 207 202 198 197 193 196 194 198 202 206 213 218 221 221 226 226 229 241 254 281 301 314 318 321 321 319 316 308 299
60 163 165 209 190 80 301 172 18 3 357 339 325 248 215 211 206 201 206 210 211 209 208 207 203 199 201 202 205 208 210 209 210 211 217 226 238 258 292 308 312 314 319 323 325 324 324 321 317
Wind_Speed_850mb
26 16 6 4 6 4 4 4 1 7 3 4 1 2 3 7 2 3 23 49 53 66 60 54 49 45 43 42 41 40 41 40 36 33 30 26 23 23 20 17 16 13 13 15 14 11 8 9 13
23 18 7 3 6 5 3 4 12 7 2 5 3 7 3 7 9 14 42 43 59 64 60 56 49 44 42 40 37 35 35 36 35 33 30 27 25 20 18 17 16 17 17 16 15 14 14 16 18
26 22 6 3 5 10 2 3 6 4 7 4 5 6 5 8 8 32 39 46 63 63 58 57 52 46 41 37 31 29 30 33 34 33 31 28 24 21 20 21 20 19 20 20 19 20 21 22 25
23 11 8 7 18 12 5 10 14 0 10 4 5 9 10 9 13 14 44 52 58 58 55 55 53 48 42 35 29 25 27 31 32 31 30 27 26 25 24 22 20 19 20 21 24 26 26 28 26
30 8 6 8 13 11 10 15 12 1 0 6 6 7 8 12 7 17 41 51 53 57 51 53 53 48 43 37 30 25 26 30 31 30 29 29 29 27 26 23 20 20 24 25 28 29 27 26 25
9 6 7 23 15 9 15 21 18 16 14 7 8 13 9 11 8 28 39 45 49 55 52 53 52 49 44 38 30 25 27 30 32 31 31 31 30 30 27 23 19 22 26 29 31 29 26 20 16
9 8 12 6 10 12 14 8 11 9 15 18 13 13 12 19 17 34 39 44 51 53 50 52 52 50 44 38 31 26 29 29 32 33 33 32 31 29 26 19 18 21 25 29 29 25 19 17 14
7 6 11 12 14 8 2 1 3 10 16 9 16 13 13 37 33 42 42 45 47 50 44 51 51 52 48 41 33 28 30 32 32 31 32 32 30 29 23 18 20 20 24 27 27 21 16 11 8
12 11 20 17 18 7 7 4 1 13 19 14 22 9 17 46 46 48 48 43 47 49 45 43 48 51 52 45 37 30 31 33 33 32 31 31 29 27 25 25 23 21 21 24 24 20 14 9 5
20 15 20 11 13 9 3 3 15 7 15 20 23 17 36 52 53 54 54 51 53 54 53 46 48 54 53 48 42 36 34 36 35 34 34 33 30 28 29 29 28 24 23 21 22 19 16 13 13
15 18 14 12 18 3 2 14 10 17 22 32 57 46 53 57 56 51 47 45 47 51 51 51 52 56 55 51 46 40 36 39 36 35 34 32 30 30 32 33 32 30 27 26 23 22 20 18 17
13 23 16 28 12 9 8 13 22 12 8 14 37 52 64 64 57 52 49 46 45 44 52 49 51 54 55 52 47 41 37 38 39 37 35 32 31 31 32 35 36 34 31 28 27 25 24 22 22
28 14 27 37 30 29 23 24 11 28 27 13 44 46 62 59 51 45 41 43 45 45 45 50 49 52 53 49 48 44 40 37 40 38 36 34 31 30 30 34 35 36 34 32 31 29 28 28 28
21 50 33 15 27 23 19 18 8 5 19 28 53 49 56 59 51 47 46 46 46 44 42 45 47 48 48 49 47 45 42 38 40 41 38 34 33 31 30 31 33 35 35 34 34 33 32 32 32
23 9 26 34 31 17 28 14 13 12 28 40 40 42 44 44 43 43 43 42 42 42 39 39 41 42 42 44 44 45 43 40 39 42 40 37 35 34 33 32 33 33 34 34 34 35 37 37 36
13 9 17 8 30 12 26 23 8 20 32 36 39 39 36 30 29 31 38 40 40 39 40 39 36 34 34 37 37 34 39 39 40 41 44 41 38 36 36 38 38 36 35 35 35 34 36 36 37
5 9 15 5 18 14 17 16 14 25 30 36 39 35 32 33 36 39 39 40 38 38 39 38 38 31 32 33 32 33 33 35 38 40 42 46 44 41 41 41 41 41 40 42 41 40 39 40 39
14 11 7 7 12 16 19 17 21 25 33 31 32 32 29 25 29 31 35 40 43 43 43 43 42 37 36 31 31 33 32 33 36 39 41 42 46 47 46 44 44 46 48 49 48 49 47 46 49
9 9 6 5 9 12 22 21 16 17 30 34 31 30 26 30 28 24 28 35 38 37 36 40 45 44 45 42 35 37 31 26 26 31 34 38 42 47 51 51 51 52 50 51 54 56 52 48 52
11 11 13 7 3 11 17 19 12 13 18 26 31 32 30 33 30 27 28 29 27 30 35 38 45 46 48 48 39 31 37 36 34 33 41 39 37 41 47 50 49 44 43 48 56 57 59 56 56
20 22 10 5 15 11 27 12 16 8 14 19 20 24 28 36 37 34 30 26 25 28 31 37 41 48 49 50 47 40 34 36 40 45 48 46 46 47 42 45 45 54 55 53 62 65 63 70 65
22 21 11 26 16 10 8 17 15 16 19 23 32 33 35 43 41 34 29 25 21 22 25 32 39 44 45 47 50 48 46 47 46 42 39 42 42 39 49 58 59 64 64 66 53 44 47 52 60
9 16 15 21 11 24 11 8 13 12 22 30 40 43 42 37 41 36 30 27 25 24 24 23 27 35 40 42 43 44 46 40 38 38 38 38 39 38 39 38 35 31 27 25 27 30 34 41 43
24 17 13 6 8 10 5 6 8 20 39 34 37 45 47 38 36 34 32 32 32 30 28 27 26 25 27 31 36 38 41 41 41 39 38 36 35 33 30 29 29 31 30 33 34 36 39 39 42
9 16 10 12 10 3 2 9 4 27 24 29 43 48 46 41 39 39 36 36 36 36 33 30 28 28 28 29 31 35 35 32 30 32 31 29 23 21 19 16 15 15 15 16 19 22 27 31 35
9 8 9 11 8 6 2 8 5 4 6 9 19 40 46 44 41 44 43 43 40 37 35 32 29 26 25 24 24 24 24 23 22 18 17 16 16 14 15 15 14 16 17 17 18 20 23 26 29
11 6 5 13 4 5 5 4 10 8 9 4 19 33 47 47 44 49 46 42 39 38 36 33 31 30 28 26 23 21 20 19 18 17 17 18 17 16 14 12 12 14 16 18 20 21 23 24 28
8 21 8 4 12 9 5 5 5 7 11 11 17 33 37 43 46 50 52 47 44 38 35 34 32 29 27 25 22 21 20 18 17 16 15 14 13 12 11 11 12 13 15 16 18 20 23 27 30
9 6 9 8 5 11 9 6 10 12 16 15 7 16 30 45 51 54 54 48 42 37 35 34 31 28 26 24 23 20 18 16 15 13 12 11 10 8 8 8 11 15 18 20 23 25 25 26 28
5 5 14 15 14 3 2 6 10 15 20 22 15 6 20 33 42 46 47 47 47 40 36 35 33 30 27 26 24 23 23 22 20 17 15 13 10 9 10 14 18 20 22 24 26 30 34 35 36
Wind_Direction_850mb
213 213 227 326 261 295 250 189 145 172 230 281 271 234 212 33 7 15 154 168 173 170 170 165 164 164 165 165 165 165 166 166 168 170 170 168 161 157 162 162 159 163 161 161 162 162 151 135 131
194 182 167 96 251 254 231 201 215 158 136 88 256 137 114 69 42 125 146 163 173 173 170 168 166 166 164 164 164 166 169 172 173 173 173 169 164 168 172 169 164 161 152 149 150 144 133 129 122
175 161 154 235 208 230 175 354 312 130 135 48 96 69 57 35 8 142 157 160 171 173 172 171 170 168 167 165 166 170 174 176 175 172 170 167 167 169 165 160 157 159 151 145 137 130 127 123 116
156 135 74 230 229 252 211 103 38 188 204 200 77 62 69 44 131 141 157 160 172 173 175 174 173 171 171 171 171 175 178 178 176 173 170 168 163 162 160 155 154 153 149 146 138 133 128 122 112
159 134 165 226 241 267 249 252 260 268 45 121 122 120 81 109 118 146 157 165 173 175 173 178 175 175 175 174 174 177 176 174 175 174 169 164 160 159 154 149 143 138 146 149 140 133 125 121 119
137 150 191 222 223 252 272 254 242 223 225 139 148 141 123 139 143 153 165 169 173 177 176 179 178 179 178 176 174 173 173 171 168 166 164 162 160 158 154 147 139 130 147 146 145 141 134 127 117
180 187 215 216 246 255 259 260 231 246 257 244 149 169 147 172 175 165 176 172 175 177 178 181 180 180 180 180 176 172 172 170 165 164 165 162 159 159 158 154 149 137 152 154 157 154 143 129 114
171 219 181 216 213 227 169 250 238 283 289 221 181 194 174 177 179 168 171 166 171 178 176 181 180 181 182 181 178 174 174 172 170 170 168 165 162 163 166 167 160 150 158 163 167 164 150 144 124
167 224 225 210 182 187 149 326 100 298 250 189 173 166 177 169 178 163 161 162 174 177 179 179 178 182 183 184 181 179 180 180 178 175 175 172 169 170 173 174 168 163 162 171 177 178 176 189 223
202 226 215 207 196 177 141 238 329 264 190 178 157 152 159 167 175 167 169 172 180 182 183 181 182 184 185 186 185 185 185 186 186 182 180 180 180 181 179 179 178 178 172 185 187 198 212 217 237
201 231 202 213 212 229 250 303 320 306 198 194 174 160 162 167 171 174 178 182 182 183 184 188 187 188 189 191 191 190 191 192 191 190 188 188 188 190 189 186 188 191 193 192 207 211 224 236 239
226 229 227 229 220 264 274 314 314 269 212 232 186 168 168 171 176 180 181 182 182 185 188 190 191 192 194 198 197 200 199 198 196 196 195 193 192 191 193 193 197 199 206 210 212 219 231 241 247
229 238 230 238 250 261 279 277 272 267 268 238 187 172 169 172 176 179 182 185 188 188 190 194 196 197 201 203 205 206 207 206 203 202 202 200 198 198 198 200 203 209 215 220 229 231 235 245 250
213 226 237 251 242 241 239 260 207 254 170 158 173 173 172 175 178 183 188 190 193 194 191 195 199 203 207 208 212 214 214 214 212 209 209 209 208 207 209 209 211 216 223 229 234 242 244 246 250
243 240 237 246 235 228 217 239 223 168 166 151 162 170 165 172 181 190 194 198 199 203 205 201 201 208 209 214 218 220 222 221 219 217 216 216 217 218 219 220 222 225 229 236 242 247 252 253 253
201 210 235 190 195 211 190 200 148 166 161 159 161 161 156 170 184 197 205 207 211 213 217 214 212 212 214 217 220 223 225 226 225 223 222 222 223 225 228 231 233 233 235 239 246 249 253 258 261
182 198 212 165 185 159 210 182 157 164 172 163 164 155 158 178 197 210 216 224 227 231 228 227 225 219 222 221 219 221 223 226 228 229 231 229 231 231 235 238 239 240 244 249 250 255 257 257 261
178 198 190 182 148 170 184 127 150 169 172 165 160 155 159 165 196 213 221 229 230 228 234 233 229 222 218 221 218 217 221 226 230 235 236 237 240 241 243 245 250 253 256 258 260 262 263 262 260
159 163 185 168 181 177 191 139 153 170 172 167 165 158 154 179 188 200 212 221 226 229 227 227 224 221 215 220 214 211 208 214 222 234 239 234 241 244 245 246 249 253 259 264 267 268 265 263 264
205 239 242 97 4 200 164 133 123 157 183 184 170 161 168 177 174 187 206 212 212 213 214 211 214 214 212 217 221 219 221 223 230 241 243 246 256 255 252 254 261 260 267 270 274 273 276 269 275
221 228 218 194 117 76 145 144 171 125 132 161 180 175 179 180 181 187 194 203 209 205 211 211 210 216 217 217 217 225 227 234 241 244 252 257 261 262 266 263 262 267 259 260 263 265 260 259 259
220 215 197 151 172 164 232 187 210 182 173 193 196 197 187 192 195 196 197 207 213 211 207 208 211 217 220 221 224 228 236 241 247 250 252 254 259 258 261 257 253 254 252 255 262 268 269 267 266
223 145 169 167 172 143 155 217 135 181 203 203 201 199 197 197 200 193 193 203 212 214 208 205 208 211 217 223 225 228 229 232 241 248 249 251 257 266 266 265 265 266 260 251 253 257 258 266 266
142 108 76 98 173 165 112 273 181 192 209 207 203 201 196 193 195 193 196 205 206 206 204 204 207 208 210 217 219 219 225 235 239 236 240 246 255 262 262 258 258 261 259 256 259 260 262 264 262
142 160 162 190 201 190 33 223 68 208 207 213 208 200 194 191 192 193 197 195 194 193 197 201 201 204 204 204 208 215 222 224 224 231 240 245 249 254 258 264 272 278 280 279 271 266 263 266 261
147 200 220 218 207 128 108 188 133 158 149 211 223 207 194 191 189 195 190 188 187 186 186 189 195 202 202 202 202 203 208 212 215 217 219 224 232 243 256 268 279 287 290 291 288 284 279 273 272
150 182 20 103 68 213 134 229 249 250 247 252 214 199 202 191 186 195 193 193 190 189 189 189 192 195 195 199 199 199 200 201 203 211 223 236 245 253 263 273 280 284 291 295 298 298 296 290 285
190 142 157 112 164 216 147 264 172 198 211 189 194 208 203 194 189 193 197 198 200 195 190 188 188 193 194 192 194 199 205 211 220 223 226 233 239 243 253 268 283 291 298 302 302 301 297 295 292
144 159 77 94 328 210 192 192 3 329 338 307 279 221 205 199 198 197 199 204 207 202 198 197 193 196 194 198 202 206 213 218 221 221 226 226 229 241 254 281 301 314 318 321 321 319 316 308 299
60 163 165 209 190 80 301 172 18 3 357 339 325 248 215 211 206 201 206 210 211 209 208 207 203 199 201 202 205 208 210 209 210 211 217 226 238 258 292 308 312 314 319 323 325 324 324 321 317